Location: Oregon Trail
(41.1872°N, 102.0741°W)
Time: 02:50:52
(UTC+00:00)

ATLAS CENTAUR R/B - Pass Details

Date: 19 November 2019
Orbit: 457 x 691 km, 64.7° (Epoch: 30 November)

Event Time Altitude Azimuth Distance (km) Brightness Sun altitude
Exits shadow 12:57:16 - 262° (W) 2,355 4.0 -8.4°
Reaches altitude 10° 12:58:01 10° 267° (W) 2,134 3.7 -8.3°
Maximum altitude 13:01:42 21° 316° (NW) 1,511 3.0 -7.6°
Drops below altitude 10° 13:05:19 10° 6° (N) 2,086 4.1 -7.0°
Sets 13:08:07 0° 22° (NNE) 2,966 5.1 -6.5°
